Al Yah 3

operational
NORAD ID: 43174 Int'l Des: 2018-012 Owner: YAHBR Country: BR
HEOCIRCULARGSO

About Al Yah 3

Description loading...

Live Position

Loading 3D Globe...

Upcoming Passes

Altitude History

Altitude vs Time

uPlot chart will show altitude changes over time

Two-Line Element Set

1 43174U 18012A 26062.36854806 -.00000170 00000-0 00000-0 0 9996
2 43174 1.2786 84.4664 0004265 266.4471 282.7877 1.00271848 29782
Epoch: Mar 3, 2026 • Age: 35 hours

Current Status

Altitude 35774.1 km
Velocity 3.08 km/s
Sub-Earth Point -0.79°S, 20.14°W
Launch Date Jan 25, 2018
Age 8.1 years
Type other

Technical Details

Classification Payload
Mass 3795.00 kg
Dry Mass 2500.00 kg
Total Mass 3795.00 kg
Length 5.00 m
Diameter 2.00 m
Span 18.00 m
Shape Box+ 2 pan
Manufacturer OATKD
Bus Type Star-2.3
Phase Status In Orbit
Owner/State YAHBR/BR

Large Constellations

Loading constellations...